Вернуться в каталог

STARLINK-5914

АктивенСвязьVLEO
NORAD 55941·PAYLOAD·🇺🇸 United States

Запущен Mar 17, 2023 с Vandenberg Space Force Base

Loading…

Ближайшие Пролёты (ближайшие 24 часа)

TLE

СвежийSource: CelesTrak SupGP

Эпоха: Sep 15, 2026, 02:51 UTC

1 55941C 23037AD  26258.11923611  .00034270  00000+0  28718-2 0  2587
2 55941  70.0015 166.9838 0002878 273.5341   2.4248 14.98316010    14

Отслеживайте STARLINK-5914 в реальном времени с AllMySat

Download on the App Store